Flag for Montenegro Weather past 2 weeks in Podgorica, Montenegro

Now
50 °F

Passing clouds.


Feels Like: 45 °F
Forecast: 40 / 58 °F
Wind: 13 mph from North

Location: Podgorica Titograd

Current Time: Mar 4, 2015 at 12:40:55 AM

Latest Report: Mar 4, 2015 at 12:00 AM


Visibility: N/A

Pressure: 30.27 "Hg

Humidity: 37%

Dew point: 25 °F

Location of PodgoricaLocation

Historic Weather in Podgorica — Graph

°F

Podgorica temperature yesterday

Maximum temperature yesterday: 64 °F (at 1:30 PM)
Minimum temperature yesterday: 48 °F (at 12:00 AM)
Average temperature yesterday: 56 °F

Past Weeks' High & Low Weather Summary

 TemperatureHumidityPressure
High64 °F (Mar 3, 1:30 PM)100% (Feb 21, 11:00 PM)30.54 "Hg (Feb 21, 11:00 PM)
Low30 °F (Feb 19, 7:00 AM)13% (Feb 18, 4:00 PM)29.56 "Hg (Feb 25, 1:30 AM)
Average48 °F70%30.00 "Hg
* Reported Feb 16 11:00 PM — Mar 3 11:30 PM, Podgorica, Weather by CustomWeather, © 2015

Note: Actual official high and low records may vary slightly from our data, if they occured in-between our weather recording intervals... More about our weather records

Advertising

Podgorica weather history for previous 24 hours

 ConditionsComfort  
Time TempWeatherWind HumidityBarometerVisibility
11:30 PM
Tue, Mar 3
52 °FClear.14 mph35%30.27 "Hg10 mi
11:00 PM52 °FClear.10 mph35%30.27 "Hg10 mi
10:30 PM52 °FClear.15 mph35%30.27 "Hg10 mi
10:00 PM54 °FClear.16 mph35%30.27 "Hg10 mi
9:30 PM54 °FClear.15 mph35%30.24 "Hg10 mi
9:00 PM52 °FPassing clouds.7 mph38%30.24 "HgN/A
8:30 PM54 °FClear.10 mph35%30.21 "Hg10 mi
8:00 PM55 °FPassing clouds.8 mph31%30.21 "HgN/A
7:30 PM55 °FClear.12 mph31%30.21 "Hg10 mi
7:00 PM54 °FClear.12 mph33%30.18 "Hg10 mi
6:30 PM55 °FPassing clouds.12 mph33%30.18 "HgN/A
6:00 PM57 °FClear.12 mph29%30.15 "Hg10 mi
5:30 PM59 °FPassing clouds.10 mph27%30.15 "HgN/A
5:00 PM61 °FPassing clouds.13 mph25%30.15 "HgN/A
4:30 PM63 °FPassing clouds.13 mph24%30.12 "HgN/A
4:00 PM64 °FPassing clouds.9 mph22%30.12 "HgN/A
3:30 PM64 °FPassing clouds.9 mph22%30.09 "HgN/A
3:00 PM64 °FPassing clouds.9 mph22%30.09 "HgN/A
2:30 PM64 °FPassing clouds.9 mph22%30.09 "HgN/A
2:00 PM64 °FPassing clouds.9 mph22%30.09 "HgN/A
1:30 PM64 °FPassing clouds.12 mph24%30.09 "HgN/A
1:00 PM63 °FPassing clouds.14 mph25%30.09 "HgN/A
12:30 PM63 °FPassing clouds.16 mph30%30.09 "HgN/A
12:00 PM63 °FPassing clouds.16 mph30%30.09 "HgN/A
11:30 AM63 °FPassing clouds.16 mph32%30.09 "HgN/A
11:00 AM61 °FPassing clouds.15 mph34%30.09 "HgN/A
10:30 AM61 °FPassing clouds.2 mph42%30.09 "HgN/A
10:00 AM61 °FPassing clouds.7 mph42%30.09 "HgN/A
9:30 AM61 °FPassing clouds.5 mph42%30.07 "HgN/A
9:00 AM57 °FPassing clouds.7 mph51%30.07 "HgN/A
8:30 AM55 °FScattered clouds.9 mph59%30.07 "HgN/A
8:00 AM55 °FPassing clouds.12 mph63%30.04 "HgN/A
7:30 AM54 °FScattered clouds.10 mph67%30.04 "HgN/A
7:00 AM50 °FScattered clouds.12 mph76%30.01 "HgN/A
6:30 AM48 °FScattered clouds.6 mph82%30.01 "HgN/A
6:00 AM48 °FPartly cloudy.5 mph100%29.98 "HgN/A
5:30 AM48 °FMostly cloudy.7 mph100%29.98 "HgN/A
5:00 AM48 °FMostly cloudy.3 mph100%29.98 "HgN/A
4:30 AM48 °FMostly cloudy.7 mph100%29.98 "HgN/A
4:00 AM48 °FMostly cloudy.5 mph100%29.95 "HgN/A
3:30 AM50 °FMostly cloudy.3 mph100%29.95 "HgN/A
3:00 AM50 °FMostly cloudy.2 mph100%29.95 "HgN/A
2:30 AM50 °FMostly cloudy.1 mph100%29.92 "HgN/A
2:00 AM50 °FLight rain. Mostly cloudy.9 mph100%29.92 "Hg4 mi
1:30 AM50 °FLight rain. Mostly cloudy.5 mph100%29.95 "Hg4 mi
1:00 AM50 °FLight rain. Mostly cloudy.12 mph100%29.92 "Hg4 mi
12:30 AM50 °FLight rain. Mostly cloudy.9 mph100%29.92 "Hg3 mi
12:00 AM48 °FRain. Mostly cloudy.5 mph100%29.95 "Hg3 mi
Weather by CustomWeather, © 2015

See weather overviewHow to use our weather pages